KB7STN Weather Reports


time (UTC)temp
F
wind
direction
speed
knots
gust
knots
rain 1hr
in
rain 24hr
in
rain mn
in
humidity
%
barometer
mb
20260906194510 81 250 2.6 8.7 0.00 0.00 0.00 29 1016.3
20260906194011 80 237 1.7 5.2 0.00 0.00 0.00 29 1016.0
20260906193510 80 243 1.7 7.0 0.00 0.00 0.00 29 1016.1
20260906193010 80 273 1.7 7.0 0.00 0.00 0.00 28 1016.2
20260906192510 80 210 0.9 6.1 0.00 0.00 0.00 29 1016.2
20260906192010 80 215 0.9 7.0 0.00 0.00 0.00 30 1016.4
20260906191510 80 189 2.6 6.1 0.00 0.00 0.00 30 1016.5
20260906191010 80 215 2.6 6.1 0.00 0.00 0.00 30 1016.7
20260906190510 80 183 1.7 6.1 0.00 0.00 0.00 29 1016.5
20260906190010 80 241 0.9 7.0 0.00 0.00 0.00 30 1016.4
20260906185510 80 228 1.7 5.2 0.00 0.00 0.00 30 1016.6
20260906185011 80 196 0.9 4.3 0.00 0.00 0.00 30 1016.7
20260906184510 80 188 0.9 2.6 0.00 0.00 0.00 30 1016.6
20260906184010 81 186 0.9 5.2 0.00 0.00 0.00 29 1016.7
20260906183510 81 215 0.9 5.2 0.00 0.00 0.00 28 1016.7
20260906183011 82 178 1.7 3.5 0.00 0.00 0.00 28 1016.7
20260906182511 82 216 1.7 7.0 0.00 0.00 0.00 28 1016.7
20260906182011 82 184 0.9 4.3 0.00 0.00 0.00 30 1016.7
20260906181511 81 198 1.7 7.8 0.00 0.00 0.00 28 1016.8
20260906181011 81 215 1.7 5.2 0.00 0.00 0.00 28 1016.8
20260906180511 81 178 1.7 5.2 0.00 0.00 0.00 28 1016.8
20260906180011 81 209 1.7 7.0 0.00 0.00 0.00 29 1016.9
20260906175511 80 216 0.9 4.3 0.00 0.00 0.00 29 1016.9
20260906175011 80 246 0.9 6.1 0.00 0.00 0.00 29 1017.0
20260906174511 80 219 1.7 7.8 0.00 0.00 0.00 28 1017.1
20260906174011 80 215 1.7 8.7 0.00 0.00 0.00 29 1017.0
20260906173511 80 161 0.9 7.0 0.00 0.00 0.00 28 1017.2
20260906173011 80 216 0.9 5.2 0.00 0.00 0.00 30 1017.4
20260906172511 79 163 0.9 4.3 0.00 0.00 0.00 31 1017.6
20260906172011 79 139 0.9 7.0 0.00 0.00 0.00 29 1017.6
20260906171511 78 274 0.9 6.1 0.00 0.00 0.00 30 1017.5
20260906171011 78 199 0.9 3.5 0.00 0.00 0.00 31 1017.6
20260906170511 77 188 1.7 0.0 0.00 0.00 0.00 31 1017.6
20260906170011 77 182 1.7 5.2 0.00 0.00 0.00 31 1017.7
20260906165511 77 219 1.7 7.0 0.00 0.00 0.00 31 1017.7
20260906165011 77 164 2.6 7.0 0.00 0.00 0.00 31 1017.8
20260906164511 76 197 2.6 7.8 0.00 0.00 0.00 32 1017.9
20260906164011 76 217 2.6 10.4 0.00 0.00 0.00 31 1018.0
20260906163511 76 183 3.5 8.7 0.00 0.00 0.00 31 1018.1
20260906163011 76 213 3.5 8.7 0.00 0.00 0.00 31 1018.1
20260906162511 76 174 2.6 13.0 0.00 0.00 0.00 30 1018.1
20260906162011 76 196 1.7 6.1 0.00 0.00 0.00 31 1018.2
20260906161511 76 183 1.7 10.4 0.00 0.00 0.00 32 1018.3
20260906161011 76 229 1.7 5.2 0.00 0.00 0.00 32 1018.3
20260906160511 76 240 1.7 5.2 0.00 0.00 0.00 32 1018.3
20260906160011 76 240 0.9 7.0 0.00 0.00 0.00 31 1018.4
20260906155511 76 254 0.0 4.3 0.00 0.00 0.00 32 1018.5
20260906155011 76 254 0.9 1.7 0.00 0.00 0.00 33 1018.7
20260906154511 75 254 1.7 5.2 0.00 0.00 0.00 33 1018.7
20260906154011 75 254 0.9 5.2 0.00 0.00 0.00 32 1018.7
20260906153511 75 255 0.0 4.3 0.00 0.00 0.00 32 1018.8
20260906153011 75 255 0.0 2.6 0.00 0.00 0.00 32 1018.7
20260906152511 75 255 0.0 3.5 0.00 0.00 0.00 32 1018.8
20260906152011 74 255 0.0 3.5 0.00 0.00 0.00 31 1018.8
20260906151511 74 256 0.0 2.6 0.00 0.00 0.00 32 1018.8
20260906151011 74 256 0.0 2.6 0.00 0.00 0.00 31 1018.9
20260906150511 74 256 0.0 3.5 0.00 0.00 0.00 32 1019.0
20260906150011 74 256 0.0 4.3 0.00 0.00 0.00 32 1019.0
20260906145511 73 256 0.0 1.7 0.00 0.00 0.00 32 1019.1
20260906145011 73 256 0.0 1.7 0.00 0.00 0.00 32 1019.0
20260906144511 73 256 0.0 1.7 0.00 0.00 0.00 33 1019.0
20260906144011 73 256 0.0 0.9 0.00 0.00 0.00 32 1019.0
20260906143511 73 256 0.0 2.6 0.00 0.00 0.00 32 1019.0
20260906143011 72 256 0.0 2.6 0.00 0.00 0.00 33 1019.0
20260906142511 72 256 0.0 2.6 0.00 0.00 0.00 33 1019.0
20260906142011 72 256 0.0 2.6 0.00 0.00 0.00 33 1019.0
20260906141511 72 256 0.0 2.6 0.00 0.00 0.00 32 1018.9
20260906141011 72 256 0.0 2.6 0.00 0.00 0.00 33 1018.8
20260906140511 72 257 0.0 2.6 0.00 0.00 0.00 33 1018.9
20260906140011 72 257 0.0 0.0 0.00 0.00 0.00 33 1018.8
20260906135511 72 256 0.0 3.5 0.00 0.00 0.00 33 1018.7
20260906135011 71 257 0.0 3.5 0.00 0.00 0.00 33 1018.7
20260906134511 71 257 0.0 1.7 0.00 0.00 0.00 33 1018.6
20260906134011 70 257 0.0 1.7 0.00 0.00 0.00 34 1018.6
20260906133511 70 257 0.0 0.9 0.00 0.00 0.00 34 1018.5
20260906133011 69 257 0.0 3.5 0.00 0.00 0.00 34 1018.6
20260906132511 69 257 0.0 1.7 0.00 0.00 0.00 34 1018.5
20260906132011 69 257 0.0 6.1 0.00 0.00 0.00 34 1018.4
20260906131511 69 257 0.0 2.6 0.00 0.00 0.00 34 1018.3
20260906131011 69 257 0.0 1.7 0.00 0.00 0.00 34 1018.3
20260906130511 69 257 0.0 1.7 0.00 0.00 0.00 34 1018.2
20260906130011 69 257 0.0 6.1 0.00 0.00 0.00 33 1018.2
20260906125511 69 257 0.0 0.9 0.00 0.00 0.00 33 1018.2
20260906125011 69 257 0.9 2.6 0.00 0.00 0.00 33 1018.2
20260906124511 69 257 0.9 5.2 0.00 0.00 0.00 32 1018.3
20260906124011 69 258 0.9 2.6 0.00 0.00 0.00 33 1018.2
20260906123511 69 258 0.0 3.5 0.00 0.00 0.00 33 1018.2
20260906123011 69 258 0.0 1.7 0.00 0.00 0.00 33 1018.3
20260906122511 69 258 0.0 2.6 0.00 0.00 0.00 33 1018.3
20260906122011 69 258 0.0 3.5 0.00 0.00 0.00 33 1018.2
20260906121511 69 258 0.0 4.3 0.00 0.00 0.00 32 1018.3
20260906121011 69 258 0.0 1.7 0.00 0.00 0.00 33 1018.3
20260906120511 69 258 0.0 4.3 0.00 0.00 0.00 32 1018.3
20260906120011 69 258 0.0 3.5 0.00 0.00 0.00 32 1018.2
20260906115511 69 258 0.0 1.7 0.00 0.00 0.00 33 1018.2
20260906115011 69 258 0.9 3.5 0.00 0.00 0.00 31 1018.3
20260906114511 69 259 0.9 3.5 0.00 0.00 0.00 31 1018.2
20260906114011 69 259 0.9 3.5 0.00 0.00 0.00 31 1018.2
20260906113511 69 259 0.0 2.6 0.00 0.00 0.00 31 1018.2
20260906113011 69 259 0.0 0.0 0.00 0.00 0.00 31 1018.2
20260906112511 69 259 0.0 2.6 0.00 0.00 0.00 30 1018.3
20260906112011 69 259 0.0 0.0 0.00 0.00 0.00 30 1018.3
20260906111511 69 259 0.0 1.7 0.00 0.00 0.00 30 1018.3
20260906111011 69 259 0.0 3.5 0.00 0.00 0.00 30 1018.3
20260906110511 69 259 0.0 0.0 0.00 0.00 0.00 30 1018.4
20260906110011 69 259 0.0 4.3 0.00 0.00 0.00 30 1018.3
20260906105511 69 259 0.0 1.7 0.00 0.00 0.00 30 1018.4
20260906105011 69 259 0.0 1.7 0.00 0.00 0.00 29 1018.4
20260906104511 69 259 0.0 0.9 0.00 0.00 0.00 29 1018.4
20260906104011 69 259 0.0 2.6 0.00 0.00 0.00 28 1018.3
20260906103511 69 259 0.0 2.6 0.00 0.00 0.00 29 1018.3
20260906103011 69 259 0.0 0.0 0.00 0.00 0.00 28 1018.3
20260906102511 69 259 0.0 1.7 0.00 0.00 0.00 28 1018.3
20260906102011 69 259 0.0 4.3 0.00 0.00 0.00 28 1018.2
20260906101511 69 259 0.9 1.7 0.00 0.00 0.00 28 1018.2
20260906101011 69 259 0.9 6.1 0.00 0.00 0.00 28 1018.2
20260906100511 69 259 0.0 1.7 0.00 0.00 0.00 28 1018.1
20260906100012 69 259 0.0 1.7 0.00 0.00 0.00 28 1018.0
20260906095511 69 259 0.0 2.6 0.00 0.00 0.00 27 1018.0
20260906095011 69 259 0.9 6.1 0.00 0.00 0.00 27 1018.0
20260906094511 69 259 0.9 4.3 0.00 0.00 0.00 27 1018.0
20260906094011 69 259 0.9 4.3 0.00 0.00 0.00 27 1018.0
20260906093511 69 259 0.9 2.6 0.00 0.00 0.00 28 1018.0
20260906093011 69 259 0.9 4.3 0.00 0.00 0.00 28 1018.0
20260906092511 70 259 0.0 4.3 0.00 0.00 0.00 28 1018.1
20260906092011 70 259 0.9 2.6 0.00 0.00 0.00 27 1018.0
20260906091511 70 259 0.9 6.1 0.00 0.00 0.00 27 1017.9
20260906091011 70 260 0.9 3.5 0.00 0.00 0.00 27 1017.9
20260906090511 70 261 0.9 3.5 0.00 0.00 0.00 27 1017.9
20260906090011 70 261 0.9 1.7 0.00 0.00 0.00 27 1017.9
20260906085511 70 261 0.9 2.6 0.00 0.00 0.00 27 1018.0
20260906085011 70 261 0.9 3.5 0.00 0.00 0.00 27 1018.0
20260906084511 70 261 0.9 3.5 0.00 0.00 0.00 27 1018.0
20260906084011 70 261 0.9 4.3 0.00 0.00 0.00 27 1017.9
20260906083511 70 261 0.9 3.5 0.00 0.00 0.00 27 1017.9
20260906083012 70 261 0.9 3.5 0.00 0.00 0.00 26 1017.9
20260906082512 70 261 0.9 4.3 0.00 0.00 0.00 26 1018.0
20260906082012 70 261 0.0 1.7 0.00 0.00 0.00 26 1018.0
20260906081512 70 261 0.0 3.5 0.00 0.00 0.00 25 1017.9
20260906081012 70 261 0.0 2.6 0.00 0.00 0.00 25 1018.0
20260906080512 71 261 0.9 2.6 0.00 0.00 0.00 25 1018.0
20260906080012 71 261 0.9 4.3 0.00 0.00 0.00 25 1018.0
20260906075512 71 261 0.9 3.5 0.00 0.00 0.00 25 1018.1
20260906075012 71 261 0.9 2.6 0.00 0.00 0.00 25 1018.1
20260906074512 71 261 0.0 1.7 0.00 0.00 0.00 24 1017.9
20260906074012 71 261 0.9 0.0 0.00 0.00 0.00 24 1018.0
20260906073512 71 261 0.9 3.5 0.00 0.00 0.00 24 1018.0
20260906073012 71 261 0.9 3.5 0.00 0.00 0.00 24 1018.0
20260906072512 71 261 0.0 2.6 0.00 0.00 0.00 23 1018.0
20260906072012 71 262 0.0 3.5 0.00 0.00 0.00 23 1018.0
20260906071512 72 262 0.0 3.5 0.00 0.00 0.00 23 1018.0
20260906071012 72 261 0.9 2.6 0.00 0.00 0.00 22 1018.0
20260906070512 72 262 0.9 3.5 0.00 0.00 0.00 22 1018.0
20260906070012 72 262 0.9 4.3 0.00 0.00 0.00 22 1018.0
20260906065512 72 262 0.9 3.5 0.00 0.00 0.00 22 1018.0
20260906065012 72 263 0.9 7.0 0.00 0.00 0.00 22 1018.0
20260906064512 72 261 0.9 4.3 0.00 0.00 0.00 22 1017.9
20260906064012 72 261 0.9 3.5 0.00 0.00 0.00 23 1017.9
20260906063512 72 261 0.9 2.6 0.00 0.00 0.00 23 1018.0
20260906063012 72 261 0.9 3.5 0.00 0.00 0.00 23 1017.9
20260906062512 73 261 0.9 3.5 0.00 0.00 0.00 23 1017.9
20260906062012 73 261 0.9 2.6 0.00 0.00 0.00 23 1017.9
20260906061512 73 261 1.7 3.5 0.00 0.00 0.00 23 1017.7
20260906061012 74 261 0.9 4.3 0.00 0.00 0.00 22 1017.8
20260906060512 74 261 0.9 3.5 0.00 0.00 0.00 22 1017.8
20260906060012 74 262 0.9 4.3 0.00 0.00 0.00 22 1017.7
20260906055512 74 262 0.9 4.3 0.00 0.00 0.00 22 1017.7
20260906055012 74 262 0.0 3.5 0.00 0.00 0.00 21 1017.6
20260906054512 74 263 0.0 0.9 0.00 0.00 0.00 21 1017.6
20260906054012 74 263 0.0 3.5 0.00 0.00 0.00 21 1017.6
20260906053512 75 263 0.0 2.6 0.00 0.00 0.00 20 1017.5
20260906053012 75 263 0.0 1.7 0.00 0.00 0.00 20 1017.5
20260906052512 75 263 0.9 6.1 0.00 0.00 0.00 19 1017.5
20260906052012 75 261 0.9 5.2 0.00 0.00 0.00 19 1017.4
20260906051512 75 262 0.9 7.0 0.00 0.00 0.00 19 1017.5
20260906051012 75 265 0.0 1.7 0.00 0.00 0.00 19 1017.5
20260906050512 75 265 0.9 3.5 0.00 0.00 0.00 19 1017.5
20260906050012 75 265 0.9 3.5 0.00 0.00 0.00 19 1017.4
20260906045512 75 265 0.0 5.2 0.00 0.00 0.00 19 1017.4
20260906045012 75 267 0.0 3.5 0.00 0.00 0.00 19 1017.4
20260906044512 75 267 0.9 3.5 0.00 0.00 0.00 19 1017.3
20260906044012 75 267 0.9 3.5 0.00 0.00 0.00 19 1017.4
20260906043512 75 267 0.9 4.3 0.00 0.00 0.00 19 1017.4
20260906043012 75 267 0.9 4.3 0.00 0.00 0.00 19 1017.4
20260906042512 75 267 0.0 3.5 0.00 0.00 0.00 19 1017.4
20260906042012 75 267 0.0 0.0 0.00 0.00 0.00 19 1017.3
20260906041512 75 267 0.0 0.0 0.00 0.00 0.00 19 1017.3
20260906041012 75 267 0.0 4.3 0.00 0.00 0.00 18 1017.2
20260906040512 75 267 0.0 0.0 0.00 0.00 0.00 18 1017.1
20260906040012 75 267 0.0 1.7 0.00 0.00 0.00 19 1017.2
20260906035512 74 267 0.0 3.5 0.00 0.00 0.00 19 1017.3
20260906035012 74 267 0.0 0.0 0.00 0.00 0.00 19 1017.1
20260906034512 75 267 0.0 0.0 0.00 0.00 0.00 19 1017.1
20260906034012 75 267 0.0 0.0 0.00 0.00 0.00 18 1017.1
20260906033512 75 267 0.0 0.0 0.00 0.00 0.00 19 1017.1
20260906033012 75 267 0.0 2.6 0.00 0.00 0.00 19 1017.0
20260906032512 75 267 0.0 0.0 0.00 0.00 0.00 19 1016.9
20260906032012 76 267 0.0 0.0 0.00 0.00 0.00 19 1016.8
20260906031512 76 267 0.0 0.0 0.00 0.00 0.00 18 1016.7
20260906031012 76 267 0.0 3.5 0.00 0.00 0.00 18 1016.8
20260906030512 76 267 0.0 2.6 0.00 0.00 0.00 18 1016.7
20260906030012 76 267 0.0 1.7 0.00 0.00 0.00 18 1016.7
20260906025512 77 267 0.0 0.0 0.00 0.00 0.00 18 1016.6
20260906025012 77 267 0.0 0.0 0.00 0.00 0.00 18 1016.5
20260906024512 77 267 0.0 0.0 0.00 0.00 0.00 18 1016.5
20260906024012 78 267 0.0 3.5 0.00 0.00 0.00 17 1016.3
20260906023512 78 267 0.0 0.9 0.00 0.00 0.00 17 1016.2
20260906023012 78 267 0.0 6.1 0.00 0.00 0.00 17 1016.2
20260906022512 78 266 0.0 0.0 0.00 0.00 0.00 18 1016.1
20260906022012 78 266 0.0 0.0 0.00 0.00 0.00 18 1016.1
20260906021512 78 266 0.0 3.5 0.00 0.00 0.00 18 1016.1
20260906021012 79 267 0.0 0.0 0.00 0.00 0.00 18 1016.0
20260906020512 79 267 0.0 0.0 0.00 0.00 0.00 18 1016.1
20260906020012 79 265 0.0 2.6 0.00 0.00 0.00 18 1015.9
20260906015512 80 265 0.9 2.6 0.00 0.00 0.00 18 1015.8
20260906015012 80 265 0.0 4.3 0.00 0.00 0.00 18 1016.0
20260906014512 80 265 0.9 3.5 0.00 0.00 0.00 18 1015.9
20260906014012 80 269 0.9 7.8 0.00 0.00 0.00 17 1016.0
20260906013512 80 291 0.9 6.1 0.00 0.00 0.00 16 1016.0
20260906013012 81 263 0.9 5.2 0.00 0.00 0.00 17 1016.0
20260906012512 81 263 0.0 4.3 0.00 0.00 0.00 17 1016.1
20260906012012 81 262 0.9 3.5 0.00 0.00 0.00 16 1016.0
20260906011512 81 263 0.9 7.0 0.00 0.00 0.00 16 1016.0
20260906011012 81 259 0.9 5.2 0.00 0.00 0.00 16 1016.0
20260906010512 81 249 0.9 2.6 0.00 0.00 0.00 16 1016.1
20260906010012 81 252 0.0 7.0 0.00 0.00 0.00 16 1015.9
20260906005512 82 244 0.9 3.5 0.00 0.00 0.00 16 1016.0
20260906005012 82 243 0.9 5.2 0.00 0.00 0.00 16 1015.9
20260906004512 82 248 0.9 1.7 0.00 0.00 0.00 17 1016.1
20260906004012 82 246 0.9 6.1 0.00 0.00 0.00 16 1015.9
20260906003512 82 212 0.9 5.2 0.00 0.00 0.00 16 1016.0
20260906003012 82 211 0.0 3.5 0.00 0.00 0.00 17 1016.0
20260906002512 83 211 0.0 3.5 0.00 0.00 0.00 17 1016.0
20260906002012 83 209 0.0 4.3 0.00 0.00 0.00 17 1016.0
20260906001512 83 209 0.0 6.1 0.00 0.00 0.00 17 1016.0
20260906001012 83 209 0.0 5.2 0.00 0.00 0.00 17 1016.0
20260906000512 83 213 0.0 3.5 0.00 0.00 0.00 16 1015.9
20260906000012 83 212 0.0 2.6 0.00 0.00 0.00 17 1016.0
20260905235512 83 211 0.9 3.5 0.00 0.00 0.00 17 1016.0
20260905235012 84 207 0.9 5.2 0.00 0.00 0.00 16 1016.0
20260905234512 84 229 0.9 4.3 0.00 0.00 0.00 15 1016.0
20260905234012 84 229 1.7 7.8 0.00 0.00 0.00 15 1016.2
20260905233512 85 233 0.9 4.3 0.00 0.00 0.00 15 1016.1
20260905233012 85 233 0.9 4.3 0.00 0.00 0.00 15 1016.1
20260905232512 85 221 0.9 3.5 0.00 0.00 0.00 15 1016.1
20260905232012 85 225 0.9 5.2 0.00 0.00 0.00 15 1016.3
20260905231512 85 224 0.9 5.2 0.00 0.00 0.00 15 1016.2
20260905231012 85 221 0.9 6.1 0.00 0.00 0.00 15 1016.3
20260905230512 85 219 1.7 6.1 0.00 0.00 0.00 15 1016.4
20260905230012 85 253 1.7 7.0 0.00 0.00 0.00 15 1016.4
20260905225512 85 252 1.7 5.2 0.00 0.00 0.00 14 1016.6
20260905225012 85 247 1.7 5.2 0.00 0.00 0.00 16 1016.4
20260905224512 85 246 1.7 3.5 0.00 0.00 0.00 15 1016.6
20260905224012 85 244 1.7 6.1 0.00 0.00 0.00 14 1016.5
20260905223512 85 253 0.9 5.2 0.00 0.00 0.00 15 1016.7
20260905223012 85 263 1.7 4.3 0.00 0.00 0.00 14 1016.7
20260905222512 85 271 1.7 6.1 0.00 0.00 0.00 14 1016.7
20260905222012 85 211 1.7 6.1 0.00 0.00 0.00 14 1016.9
20260905221512 84 198 2.6 6.1 0.00 0.00 0.00 15 1016.7
20260905221012 84 207 1.7 7.8 0.00 0.00 0.00 14 1016.7
20260905220513 84 262 1.7 7.8 0.00 0.00 0.00 14 1016.9
20260905220012 84 208 1.7 6.1 0.00 0.00 0.00 15 1016.9
20260905215512 84 147 1.7 6.1 0.00 0.00 0.00 14 1017.0
20260905215013 84 238 1.7 7.0 0.00 0.00 0.00 15 1017.0
20260905214513 84 284 1.7 7.0 0.00 0.00 0.00 14 1017.0
20260905214012 85 192 1.7 6.1 0.00 0.00 0.00 14 1017.1
20260905213513 85 218 1.7 6.1 0.00 0.00 0.00 13 1017.2
20260905213013 85 225 0.9 6.1 0.00 0.00 0.00 13 1017.4
20260905212513 85 205 2.6 4.3 0.00 0.00 0.00 13 1017.5
20260905212013 85 218 1.7 7.8 0.00 0.00 0.00 13 1017.0
20260905211513 85 245 0.9 6.1 0.00 0.00 0.00 14 1017.1
20260905211013 84 241 0.9 4.3 0.00 0.00 0.00 15 1017.2
20260905210513 84 259 1.7 4.3 0.00 0.00 0.00 16 1017.4
20260905210013 84 196 1.7 9.6 0.00 0.00 0.00 14 1017.6
20260905205513 84 263 0.9 8.7 0.00 0.00 0.00 14 1017.6
20260905205013 84 261 0.9 7.0 0.00 0.00 0.00 15 1017.5
20260905204513 84 220 1.7 7.0 0.00 0.00 0.00 15 1017.7
20260905204013 84 213 1.7 7.0 0.00 0.00 0.00 15 1017.7
20260905203513 83 202 1.7 4.3 0.00 0.00 0.00 16 1017.8
20260905203013 83 172 2.6 6.1 0.00 0.00 0.00 15 1017.6
20260905202513 83 242 2.6 5.2 0.00 0.00 0.00 15 1017.8
20260905202013 83 209 2.6 6.1 0.00 0.00 0.00 16 1017.9
20260905201513 83 273 1.7 8.7 0.00 0.00 0.00 17 1017.8
20260905201013 82 261 0.9 8.7 0.00 0.00 0.00 17 1017.8
20260905200513 82 199 1.7 6.1 0.00 0.00 0.00 18 1017.7
20260905200013 82 173 2.6 9.6 0.00 0.00 0.00 21 1017.9
20260905195513 82 159 1.7 7.0 0.00 0.00 0.00 22 1017.9
20260905195013 82 222 0.0 3.5 0.00 0.00 0.00 20 1018.0